EHI
0 0 0 0 0 0 0 0 0 0 0 0 0 0 0 0 0 0 0 0 0 0 0 0 0 0 0 0 0 0 0 0 0 0 0 0 0 0 0 0 0 0 0 0
0 0 0 0 0 0 0 0 0 0 0 0 0 0 0 0 0 0 0 0 0 0 0 0 0 0 0 0 0 0 0 0 0 0 0 0 0 0 0 0 0 0 0 0
0 0 0 0 0 0 0 0 0 0 0 0 0 0 0 0 0 0 0 0 0 0 0 0 0 0 0 0 0 0 0 0 0 0 0 0 0 0 0 0 0 0 0 0
0 0 0 0 0 0 0 0 0 0 0 0 0 0 0 0 0 0 0 0 0 0 0 0 0 0 0 0 0 0 0 0 0 0 0 0 0 0 0 0 0 0 0 0
0 0 0 0 0 0 0 0 0 0 0 0 0 0 0 0 0 0 0 0 0 0 0 0 0 0 0 0 0 0 0 0 0 0 0 0 0 0 0 0 0 0 0 0
0 0 0 0 0 0 0 0 0 0 0 0 0 0 0 0 0 0 0 0 0 0 0 0 0 0 0 0 0 0 0 0 0 0 0 0 0 0 0 0 0 0 0 0
0 0 0 0 0 0 0 0 0 0 0 0 0 0 0 0 0 0 0 0 0 0 0 0 0 0 0 0 0 0 0 0 0 0 0 0 0 0 0 0 0 0 0 0
0 0 0 0 0 0 0 0 0 0 0 0 0 0 0 0 0 0 0 0 0 0 0 0 0 0 0 0 0 0 0 0 0 0 0 0 0 0 0 0 0 0 0 0
0 0 0 0 0 0 0 0 0 0 0 0 0 0 0 0 0 0 0 0 0 0 0 0 0 0 0 0 0 0 0 0 0 0 0 0 0 0 0 0 0 0 0 0
0 0 0 0 0 0 0 0 0 0 0 0 0 0 0 0 0 0 0 0 0 0 0 0 0 0 0 0 0 0 0 0 0 0 0 0 0 0 0 0 0 0 0 0
0 0 0 0 0 0 0 0 0 0 0 0 0 0 0 0 0 0 0 0 0 0 0 0 0 0 0 0 0 0 0 0 0 0 0 0 0 0 0 0 0 0 0 0
0 0 0 0 0 0 0 0 0 0 0 0 0 0 0 0 0 0 0 0 0 0 0 0 0 0 0 0 0 0 0 0 0 0 0 0 0 0 0 0 0 0 0 0
0 0 0 0 0 0 0 0 0 0 0 0 0 0 0 0 0 0 0 0 0 0 0 0 0 0 0 0 0 0 0 0 0 0 0 0 0 0 0 0 0 0 0 0
0 0 0 0 0 0 0 0 0 0 0 0 0 0 0 0 0 0 0 0 0 0 0 0 0 0 0 0 0 0 0 0 0 0 0 0 0 0 0 0 0 0 0 0
0 0 0 0 0 0 0 0 0 0 0 0 0 0 0 0 0 0 0 0 0 0 0 0 0 0 0 0 0 0 0 0 0 0 0 0 0 0 0 0 0 0 0 0
0 0 0 0 0 0 0 0 0 0 0 0 0 0 0 0 0 0 0 0 0 0 0 0 0 0 0 0 0 0 0 0 0 0 0 0 0 0 0 0 0 0 0 0
0 0 0 0 0 0 0 0 0 0 0 0 0 0 0 0 0 0 0 0 0 0 0 0 0 0 0 0 0 0 0 0 0 0 0 0 0 0 0 0 0 0 0 0
0 0 0 0 0 0 0 0 0 0 0 0 0 0 0 0 0 0 0 0 0 0 0 0 0 0 0 0 0 0 0 0 0 0 0 0 0 0 0 0 0 0 0 0
0 0 0 0 0 0 0 0 0 0 0 0 0 0 0 0 0 0 0 0 0 0 0 0 0 0 0 0 0 0 0 0 0 0 0 0 0 0 0 0 0 0 0 0
0 0 0 0 0 0 0 0 0 0 0 0 0 0 0 0 0 0 0 0 0 0 0 0 0 0 0 0 0 0 0 0 0 0 0 0 0 0 0 0 0 0 0 0
0 0 0 0 0 0 0 0 0 0 0 0 0 0 0 0 0 0 0 0 0 0 0 0 0 0 0 0 0 0 0 0 0 0 0 0 0 0 0 0 0 0 0 0
0 0 0 0 0 0 0 0 0 0 0 0 0 0 0 0 0 0 0 0 0 0 0 0 0 0 0 0 0 0 0 0 0 0 0 0 0 0 0 0 0 0 0 0
0 0 0 0 0 0 0 0 0 0 0 0 0 0 0 0 0 0 0 0 0 0 0 0 0 0 0 0 0 0 0 0 0 0 0 0 0 0 0 0 0 0 0 0
0 0 0 0 0 0 0 0 0 0 0 0 0 0 0 0 0 0 0 0 0 0 0 0 0 0 0 0 0 0 0 0 0 0 0 0 0 0 0 0 0 0 0 0
0 0 0 0 0 0 0 0 0 0 0 0 0 0 0 0 0 0 0 0 0 0 0 0 0 0 0 0 0 0 0 0 0 0 0 0 0 0 0 0 0 0 0 0
0 0 0 0 0 0 0 0 0 0 0 0 0 0 0 0 0 0 0 0 0 0 0 0 0 0 0 0 0 0 0 0 0 0 0 0 0 0 0 0 0 0 0 0
Wind_Speed
6 4 7 10 12 10 8 8 9 9 9 7 7 7 9 13 12 6 4 10 13 13 12 11 11 12 12 15 16 16 15 13 8 4 3 2 2 1 1 1 2 4 5 6
4 10 12 10 8 5 5 8 9 9 5 2 6 9 11 11 10 1 8 12 11 11 11 12 13 14 15 15 15 15 15 14 11 7 4 4 4 3 3 2 2 1 2 4
10 4 1 5 8 8 9 9 9 8 7 5 9 9 10 6 2 10 13 13 12 11 10 11 13 13 13 15 15 14 15 14 13 10 6 5 5 4 4 5 3 2 1 2
10 6 3 4 6 6 8 4 3 3 3 5 3 6 7 9 3 10 11 10 10 9 9 9 10 11 12 12 11 12 13 13 13 12 10 7 5 3 3 3 3 2 2 2
5 6 3 5 6 5 3 2 1 4 6 6 6 8 7 9 7 9 9 9 8 7 7 9 9 9 9 9 9 10 11 12 13 12 12 10 8 5 4 5 5 4 2 3
6 1 4 4 0 1 1 1 7 7 2 5 7 8 6 2 7 10 9 8 8 7 7 8 7 7 7 7 8 8 10 11 11 11 11 10 9 8 8 7 6 5 3 2
5 6 3 0 2 2 3 2 3 2 4 6 1 3 3 3 6 10 11 8 7 7 7 6 6 6 6 7 8 8 9 10 10 10 10 10 9 9 9 8 7 6 5 4
4 3 6 4 3 1 3 1 3 4 5 5 4 6 3 5 6 8 9 8 7 7 6 5 4 4 5 7 7 8 8 9 9 9 9 9 9 7 6 8 7 7 6 5
3 2 4 3 1 1 0 2 1 1 3 5 7 6 3 5 6 7 7 7 6 5 4 4 4 4 5 6 6 7 7 7 7 7 7 8 8 8 8 7 7 6 7 7
0 4 1 3 2 2 2 2 1 3 4 7 8 9 7 7 9 8 8 7 6 4 4 3 4 4 4 4 5 5 6 6 6 6 6 5 6 6 6 6 7 7 7 8
1 3 4 3 6 5 5 4 5 5 6 5 6 8 1 5 11 11 8 7 5 4 3 3 3 3 3 4 4 4 4 5 5 6 5 5 5 5 6 5 6 6 6 7
2 2 5 7 6 5 5 7 7 8 9 8 10 11 4 8 7 6 6 5 4 2 1 1 2 2 3 3 3 3 3 4 4 4 5 5 5 5 5 6 6 7 7 7
3 4 2 6 5 4 3 1 2 4 4 6 10 8 5 7 6 5 7 8 8 7 4 2 1 2 3 3 3 4 4 3 3 3 4 5 5 5 5 5 6 7 7 8
3 3 7 8 6 6 7 8 7 5 6 8 11 13 11 8 6 8 12 11 9 7 5 3 1 1 2 2 2 3 4 4 3 4 4 5 5 6 6 6 6 7 7 8
1 4 7 10 11 11 11 13 12 12 13 16 17 17 16 9 6 4 2 5 4 4 5 5 3 1 1 2 1 2 3 4 4 4 6 6 7 7 8 8 8 7 7 9
1 3 3 7 9 9 14 16 16 15 15 19 20 20 3 3 5 5 4 2 2 3 4 5 4 3 2 2 1 1 3 3 3 4 6 7 8 9 9 9 9 10 10 9
2 3 2 6 7 7 13 16 18 15 14 13 13 5 3 3 4 4 4 4 3 2 2 2 3 4 3 1 1 2 3 3 4 5 7 8 9 10 10 10 11 11 11 11
5 4 3 4 3 11 13 6 6 6 6 4 2 4 4 1 2 3 5 6 5 3 3 3 3 2 2 2 1 2 2 3 5 7 8 8 8 10 10 10 11 12 11 13
9 7 5 4 7 10 8 3 3 3 6 2 4 5 3 3 3 5 5 2 2 3 4 3 1 2 2 2 2 2 3 4 6 7 8 8 8 9 11 13 14 14 14 16
7 8 7 6 6 8 4 3 2 3 6 3 5 5 2 1 3 5 4 4 5 5 3 1 2 2 2 3 4 4 5 6 7 7 8 9 9 10 13 15 16 15 16 19
4 4 8 9 8 9 3 3 2 2 8 3 5 5 4 5 7 7 7 6 6 5 1 2 2 2 3 5 5 6 6 7 6 7 9 10 9 10 13 15 15 15 17 19
7 6 7 6 6 9 3 4 5 5 3 5 5 6 7 8 8 7 7 7 4 1 3 4 3 3 4 5 5 7 8 8 8 8 10 10 10 11 12 13 15 14 15 18
7 8 6 7 8 4 6 7 8 5 5 6 7 8 7 8 8 7 7 3 2 4 4 4 3 4 4 3 4 8 9 9 10 10 11 12 12 10 11 13 15 14 13 14
6 6 6 6 8 10 10 9 8 9 10 8 7 7 7 8 9 7 4 2 3 3 2 2 3 5 5 4 5 5 9 9 9 12 13 13 13 13 12 11 12 12 13 14
9 5 6 10 12 13 14 13 12 11 9 7 7 8 9 9 8 6 4 4 2 2 2 2 3 5 7 6 6 6 7 8 11 13 14 14 13 13 13 12 11 15 14 17
15 13 12 13 14 12 10 9 8 8 8 8 8 9 7 6 5 3 3 2 2 1 2 3 4 6 6 7 8 7 7 7 10 13 13 12 12 12 13 14 14 21 26 32
Wind_Direction
176 201 211 222 224 245 285 291 288 290 293 285 261 270 284 285 289 301 52 72 74 65 51 37 28 22 23 23 23 21 18 13 18 34 43 39 4 3 33 95 133 163 168 175
162 226 234 250 273 303 306 295 285 283 284 319 282 273 271 271 270 278 86 78 71 61 46 36 31 29 28 27 24 24 20 17 19 25 33 38 21 19 19 33 58 94 154 171
217 246 266 251 258 261 263 259 266 276 314 291 266 264 250 268 170 89 83 78 68 60 48 38 34 31 28 28 26 26 22 18 16 20 30 36 29 19 12 4 7 13 359 196
236 259 276 242 255 256 271 273 274 289 288 262 275 285 236 252 164 98 86 79 72 65 58 49 40 35 31 25 23 29 28 24 19 20 24 28 31 18 352 343 350 351 320 300
241 158 173 219 234 227 239 87 257 239 236 263 241 252 256 222 148 108 98 93 89 79 70 62 51 44 35 27 27 28 31 31 26 26 24 24 21 11 0 4 3 351 318 285
265 126 206 229 222 8 27 247 244 223 205 255 231 222 278 331 145 133 121 108 101 91 76 68 61 54 40 32 34 32 33 33 29 31 30 27 18 9 9 5 354 345 334 299
232 192 199 77 193 171 201 232 320 280 203 231 339 256 271 72 77 129 129 115 99 85 74 64 55 53 46 39 38 36 36 31 26 28 30 27 23 20 20 9 357 355 350 343
271 242 148 185 223 132 176 177 207 252 263 304 351 258 256 118 87 92 102 103 94 83 79 73 65 59 55 50 46 42 39 32 24 26 23 21 21 21 20 12 6 359 351 341
251 228 143 148 76 25 327 214 195 256 308 287 255 245 160 141 132 124 122 116 109 108 107 103 86 70 59 54 51 50 48 37 27 25 25 22 19 17 16 12 10 4 356 348
111 274 269 117 117 190 221 302 69 158 232 246 258 267 270 172 167 161 159 148 138 133 121 108 91 82 74 64 56 55 59 48 30 25 27 24 16 14 8 5 6 0 352 350
175 245 263 195 202 223 203 207 218 219 211 227 254 260 111 125 167 171 159 139 135 128 116 110 107 102 101 84 63 52 56 53 31 18 13 12 6 3 358 357 354 347 341 341
166 218 258 260 271 285 276 258 247 250 250 251 261 267 14 79 88 107 126 139 149 153 136 132 127 112 93 87 78 56 50 64 43 14 1 352 349 351 347 344 340 335 331 327
112 150 263 299 267 204 225 250 336 319 291 264 268 275 78 99 119 158 183 188 190 190 188 206 97 78 73 58 55 43 31 42 39 10 352 338 336 335 328 326 324 323 321 318
77 202 209 229 260 316 302 294 288 275 263 268 265 280 298 298 269 221 206 201 196 186 182 184 134 5 28 24 42 26 4 4 8 358 344 329 322 319 313 307 301 299 301 304
124 242 246 263 278 288 285 280 274 265 261 266 272 278 285 304 321 355 127 153 167 177 183 188 189 199 291 301 353 10 339 334 346 344 332 320 317 314 309 302 295 290 287 289
206 255 280 270 272 282 280 273 270 271 268 267 270 272 306 53 39 41 54 100 194 211 199 185 180 193 226 262 279 309 300 308 342 326 307 302 301 298 295 294 294 294 293 290
203 193 213 256 256 270 257 244 247 245 241 254 267 267 64 35 31 18 358 333 314 310 290 228 205 201 199 168 84 290 285 314 318 297 287 283 281 280 280 281 283 285 288 289
210 201 218 253 245 232 238 227 230 259 266 273 202 175 163 124 8 320 284 267 267 273 279 268 240 207 122 84 341 295 311 311 295 285 281 280 281 285 290 291 291 292 292 290
216 197 210 222 235 260 258 265 339 303 284 268 163 156 126 45 336 291 291 296 296 286 273 266 186 105 64 22 16 20 332 302 288 284 287 297 307 311 311 306 303 303 301 295
203 211 218 223 231 240 243 102 75 25 287 226 154 152 135 2 297 275 310 312 288 276 271 132 97 75 40 38 40 360 314 299 291 298 312 321 322 317 310 306 304 302 299 295
172 196 215 230 242 255 256 125 89 216 258 178 151 179 221 246 243 259 273 269 262 255 186 115 86 65 55 43 16 325 306 300 309 322 320 315 313 308 301 298 296 297 295 293
183 202 208 197 219 254 159 137 197 223 161 181 202 229 255 269 276 275 270 263 253 181 96 72 51 30 27 21 351 312 306 315 323 319 313 308 302 297 297 292 292 290 289 289
215 210 197 193 211 238 176 195 221 232 234 239 246 260 266 272 274 273 270 261 120 94 79 60 27 334 338 351 334 310 314 323 320 315 309 303 299 295 292 291 293 292 287 285
239 223 231 252 253 259 259 250 247 251 255 257 258 267 270 266 262 262 256 167 130 101 77 42 351 316 312 325 323 308 315 321 315 308 307 306 306 302 297 292 291 290 288 286
235 233 234 243 249 257 259 258 257 258 255 259 268 266 262 259 256 247 204 173 153 115 63 8 319 303 304 315 313 312 313 312 307 305 305 306 303 301 299 293 286 287 279 278
238 238 242 247 247 245 250 244 236 242 252 260 265 267 251 227 229 195 179 150 116 68 8 319 299 295 300 307 306 306 303 300 302 306 306 305 304 301 299 298 294 290 291 292